STARLINK-32344, 61719

Orbit data source: Space-Track

STARLINK-32344, 61719 is a payload satellite owned by SpaceX/Seattle (US) in LEO that was launched on Wed, 30 Oct 2024 UTC via an FALCON 9 launch vehicle from the Air Force Eastern Test Range (AFETR). Payload-class satellites include a variety of spacecraft equipped with specific instruments for various scientific and technological missions. These include communications satellites like Starlink; space stations such as the ISS; scientific satellites like the Hubble; Earth observation satellites from companies like Planet Labs, Umbra, and HawkEye 360; GPS; miniature CubeSats for education and research; and military/defense satellites.

Loading next visibility...
Identifier
61719, 2024-196N
Orbit
LEO
Last TLE update
22 hours ago
Origin
Manufacturer
SpaceX/Seattle
Mission
Operational Commercial Communications
Bus & Motor
STARLINK V2M, Unknown motor
Mass
730 kg wet, ~700 kg dry
Launch date (UTC)
2024-10-30 (8 months ago)
Launch vehicle
FALCON 9
Launch site
Air Force Eastern Test Range (AFETR)
Object type
Payload
Rocket body
Debris
Shape & HBR
Box + 2 Pan, 29 m
Radar Cross Section
36.964 m², Large (>1 m²)

Expand to show TLE details & history

TLE from 22 hours ago
0 STARLINK-32344
1 61719U 24196N   25181.50625461  .00000348  00000-0  23861-4 0  9991
2 61719  53.1601 192.8862 0001126  77.3545 282.7581 15.30193563 38548
Epoch: 2025-06-30T12:09Z
TLE epoch observation values (Epoch: 2025-06-30T12:09:00.398Z)
Latitude
-0.00006°
Longitude
91.81941°
Altitude
475.964 km
Speed
7.629 km/s
True Right ascension
12h 51m 32s
True Declination
0° 00' 00"
Sunlit
Object was in daylight at epoch
Visualization orbit readout
Latitude
-52.75552°
Longitude
9.12303°
Altitude
494.299 km
Speed
7.617 km/s
Apparent Right ascension
08h 26m 34s
Apparent Declination
-47° 24' 18"
Sunlit
Object is in daylight
Visualization observer readout
Local Sidereal Time
21:22:21
Azimuth
131.269° SE
Elevation
-77.467°
Doppler factor
1
Orbital elements
Apogee altitude
476.262 km
Perigee altitude
474.719 km
Semi-major axis
6,853.628 km
Eccentricity
0.00011
Inclination
53.1601°
RAAN
192.8862°
Arg. of periapsis
77.3545°
True anomaly
Unknown
Mean anomaly
282.7581°
Eccentric anomaly
Unknown
Mean motion
3.82527 °/min
Orbital period
94.11 mins
BSTAR
0.000023861
Loading maneuver chart data...
Loading SW <> Apogee altitude chart data...
Loading historical data...
Loading historical data...
Loading historical data...
Loading historical data...
Loading historical data...
Loading historical data...
Loading historical data...

STARLINK-32344 Visibility forecast

Observer location: undefined°, undefined°

Span
Click to sort rows by Start time (UTC) header in descending order
Start Az.
Max El. time (UTC)
Max El. Az.
Max El.
End time (UTC)
End Az.
7 mins2025-07-01 10:36:01.588Z303.028° NW2025-07-01 10:40:01.588Z185.43° SSW38.559°2025-07-01 10:43:01.588Z144.12° SSE
5 mins2025-07-02 03:33:01.588Z250.464° W2025-07-02 03:35:01.588Z324.173° NNW40.565°2025-07-02 03:38:01.588Z41.584° NE
5 mins2025-07-02 08:29:01.588Z334.053° NNW2025-07-02 08:32:01.588Z29.206° NE19.398°2025-07-02 08:34:01.588Z67.671° E
|